Location: Kott?ru
(16.6209°N, 80.6208°E)
Time: 13:57:45
(UTC+00:00)

Palapa B4 Rocket - Pass Details

Date: 18 September 2020
Orbit: 502 x 2696 km, 19.7° (Epoch: 29 October)

Event Time Altitude Azimuth Distance (km) Brightness Sun altitude
Rises 13:42:16 0° 265° (W) 3,235 8.4 -16.5°
Reaches altitude 10° 13:44:18 10° 267° (W) 2,498 7.4 -17.0°
Maximum altitude 13:50:21 78° 353° (N) 1,209 4.4 -18.4°
Enters shadow 13:56:18 26° 77° (ENE) 2,682 5.7 -19.8°
